Location: Hawaiian Village Mobile Home Park
(32.8359°N, 116.9792°W)
Time: 17:13:23
(UTC+00:00)

PSLV R/B - Pass Details

Date: 01 August 2021
Orbit: 593 x 629 km, 98.0° (Epoch: 22 September)

Event Time Altitude Azimuth Distance (km) Brightness Sun altitude
Rises 12:13:15 0° 6° (N) 2,871 7.5 -10.1°
Reaches altitude 10° 12:15:29 10° 2° (N) 1,958 6.6 -9.7°
Maximum altitude 12:19:37 54° 285° (WNW) 729 3.7 -8.9°
Drops below altitude 10° 12:23:42 10° 208° (SSW) 1,927 5.6 -8.1°
Enters shadow 12:25:01 - 205° (SSW) 2,464 6.2 -7.9°
